Volver al catálogo

CZ-6A DEB

ActivoPO
NORAD 61834·DEBRIS·🇨🇳 China

Lanzado Aug 6, 2024 desde Taiyuan Satellite Launch Center

Loading…

Próximos Pases (próximas 24 horas)

TLE

ActualizadoSource: Space-Track

Época: Sep 14, 2026, 11:24 UTC

1 61834U 24140ADA 26257.47511732  .00001415  00000-0  64545-3 0  9993
2 61834  88.9983 265.0419 0055526 268.4599  91.0230 14.20319320103107

Sigue CZ-6A DEB en tiempo real con AllMySat

Download on the App Store